| time (UTC) | temp F | wind direction | speed knots | gust knots | rain 1hr in | rain 24hr in | rain mn in | humidity % | barometer mb |
| 20260504050537 | 37 | 4 | 0.0 | 0.0 | 0.00 | 0.00 | 0.00 | 94 | 1013.1 |
| 20260504045531 | 37 | 6 | 0.0 | 0.0 | 0.00 | 0.00 | 0.00 | 95 | 1013.0 |
| 20260504045026 | 37 | 9 | 0.0 | 0.0 | 0.00 | 0.00 | 0.00 | 95 | 1013.1 |
| 20260504044524 | 37 | 4 | 0.0 | 0.0 | 0.00 | 0.00 | 0.00 | 95 | 1013.3 |
| 20260504044021 | 37 | 5 | 0.0 | 0.0 | 0.00 | 0.00 | 0.00 | 95 | 1013.3 |
| 20260504043518 | 37 | 5 | 0.0 | 0.0 | 0.00 | 0.00 | 0.00 | 95 | 1013.1 |
| 20260504043015 | 37 | 12 | 0.0 | 0.0 | 0.00 | 0.00 | 0.00 | 94 | 1013.2 |
| 20260504042512 | 37 | 9 | 0.0 | 0.0 | 0.00 | 0.00 | 0.00 | 94 | 1013.1 |
| 20260504042009 | 37 | 8 | 0.0 | 0.0 | 0.00 | 0.00 | 0.00 | 94 | 1012.6 |
| 20260504041505 | 37 | 7 | 0.0 | 0.0 | 0.00 | 0.00 | 0.00 | 93 | 1012.7 |
| 20260504041001 | 37 | 6 | 0.0 | 0.0 | 0.00 | 0.00 | 0.00 | 93 | 1012.7 |
| 20260504040459 | 37 | 6 | 0.0 | 0.0 | 0.00 | 0.00 | 0.00 | 93 | 1013.0 |
| 20260504035954 | 37 | 6 | 0.0 | 0.0 | 0.00 | 0.00 | 0.00 | 93 | 1012.8 |
| 20260504035452 | 38 | 4 | 0.0 | 0.0 | 0.00 | 0.00 | 0.00 | 93 | 1013.0 |
| 20260504034948 | 38 | 9 | 0.0 | 0.0 | 0.00 | 0.00 | 0.00 | 92 | 1013.0 |
| 20260504034446 | 38 | 4 | 0.0 | 0.0 | 0.00 | 0.00 | 0.00 | 92 | 1012.8 |
| 20260504033943 | 38 | 4 | 0.0 | 0.0 | 0.00 | 0.00 | 0.00 | 92 | 1013.0 |
| 20260504033441 | 38 | 8 | 0.0 | 0.0 | 0.00 | 0.00 | 0.00 | 91 | 1012.7 |
| 20260504032938 | 39 | 9 | 0.0 | 0.0 | 0.00 | 0.00 | 0.00 | 91 | 1013.0 |
| 20260504032435 | 39 | 3 | 0.0 | 0.0 | 0.00 | 0.00 | 0.00 | 91 | 1012.8 |
| 20260504031931 | 39 | 7 | 0.0 | 0.0 | 0.00 | 0.00 | 0.00 | 90 | 1012.8 |
| 20260504031428 | 39 | 8 | 0.0 | 0.0 | 0.00 | 0.00 | 0.00 | 90 | 1012.8 |
| 20260504030925 | 39 | 7 | 0.0 | 0.0 | 0.00 | 0.00 | 0.00 | 90 | 1013.0 |
| 20260504030422 | 39 | 7 | 0.0 | 0.0 | 0.00 | 0.00 | 0.00 | 91 | 1012.7 |
| 20260504025918 | 39 | 6 | 0.0 | 0.0 | 0.00 | 0.00 | 0.00 | 91 | 1012.6 |
| 20260504025415 | 39 | 6 | 0.0 | 0.0 | 0.00 | 0.00 | 0.00 | 91 | 1013.0 |
| 20260504024912 | 40 | 4 | 0.0 | 0.0 | 0.00 | 0.00 | 0.00 | 90 | 1013.1 |
| 20260504024409 | 40 | 7 | 0.0 | 0.0 | 0.00 | 0.00 | 0.00 | 89 | 1012.8 |
| 20260504023906 | 40 | 5 | 0.0 | 0.0 | 0.00 | 0.00 | 0.00 | 88 | 1012.8 |
| 20260504023403 | 40 | 4 | 0.0 | 0.0 | 0.00 | 0.00 | 0.00 | 88 | 1013.2 |
| 20260504022858 | 40 | 4 | 0.0 | 0.0 | 0.00 | 0.00 | 0.00 | 89 | 1012.8 |
| 20260504022355 | 40 | 8 | 0.0 | 0.0 | 0.00 | 0.00 | 0.00 | 88 | 1012.7 |
| 20260504021851 | 40 | 8 | 0.0 | 0.0 | 0.00 | 0.00 | 0.00 | 88 | 1013.0 |
| 20260504021349 | 41 | 5 | 0.0 | 0.0 | 0.00 | 0.00 | 0.00 | 89 | 1012.8 |
| 20260504020845 | 41 | 4 | 0.0 | 0.0 | 0.00 | 0.00 | 0.00 | 89 | 1012.8 |
| 20260504020342 | 41 | 4 | 0.0 | 0.0 | 0.00 | 0.00 | 0.00 | 87 | 1012.7 |
| 20260504015838 | 41 | 3 | 0.0 | 0.0 | 0.00 | 0.00 | 0.00 | 85 | 1012.6 |
| 20260504015335 | 41 | 2 | 0.0 | 0.0 | 0.00 | 0.00 | 0.00 | 84 | 1012.8 |
| 20260504014831 | 42 | 2 | 0.0 | 0.0 | 0.00 | 0.00 | 0.00 | 83 | 1012.8 |
| 20260504014327 | 42 | 1 | 0.0 | 0.0 | 0.00 | 0.00 | 0.00 | 83 | 1012.7 |
| 20260504013825 | 43 | 2 | 0.0 | 0.0 | 0.00 | 0.00 | 0.00 | 83 | 1012.7 |
| 20260504013322 | 43 | 2 | 0.0 | 0.0 | 0.00 | 0.00 | 0.00 | 80 | 1012.8 |
| 20260504012819 | 43 | 2 | 0.0 | 0.0 | 0.00 | 0.00 | 0.00 | 78 | 1012.5 |
| 20260504012316 | 43 | 2 | 0.0 | 0.0 | 0.00 | 0.00 | 0.00 | 76 | 1012.8 |
| 20260504011814 | 44 | 2 | 0.0 | 0.0 | 0.00 | 0.00 | 0.00 | 77 | 1012.6 |
| 20260504011310 | 45 | 2 | 0.0 | 0.0 | 0.00 | 0.00 | 0.00 | 77 | 1012.6 |
| 20260504010806 | 45 | 2 | 0.0 | 0.0 | 0.00 | 0.00 | 0.00 | 73 | 1012.6 |
| 20260504010302 | 46 | 1 | 0.0 | 0.0 | 0.00 | 0.00 | 0.00 | 73 | 1012.4 |
| 20260504005759 | 46 | 1 | 0.0 | 0.0 | 0.00 | 0.00 | 0.00 | 68 | 1012.5 |
| 20260504005256 | 47 | 1 | 0.0 | 0.0 | 0.00 | 0.00 | 0.00 | 70 | 1012.4 |
| 20260504004753 | 48 | 1 | 0.0 | 0.0 | 0.00 | 0.00 | 0.00 | 66 | 1012.5 |
| 20260504004251 | 48 | 1 | 0.0 | 0.0 | 0.00 | 0.00 | 0.00 | 64 | 1012.2 |
| 20260504003747 | 49 | 1 | 0.0 | 0.0 | 0.00 | 0.00 | 0.00 | 62 | 1012.4 |
| 20260504003244 | 50 | 357 | 0.0 | 0.0 | 0.00 | 0.00 | 0.00 | 56 | 1012.3 |
| 20260504002740 | 51 | 358 | 0.9 | 0.9 | 0.00 | 0.00 | 0.00 | 52 | 1012.0 |
| 20260504002237 | 51 | 359 | 0.0 | 0.0 | 0.00 | 0.00 | 0.00 | 51 | 1011.7 |
| 20260504001735 | 52 | 1 | 0.0 | 0.0 | 0.00 | 0.00 | 0.00 | 51 | 1012.1 |
| 20260504001232 | 52 | 1 | 0.0 | 0.0 | 0.00 | 0.00 | 0.00 | 51 | 1012.0 |
| 20260504000729 | 52 | 3 | 0.0 | 0.0 | 0.00 | 0.00 | 0.00 | 51 | 1011.9 |
| 20260504000226 | 53 | 358 | 0.0 | 0.0 | 0.00 | 0.00 | 0.00 | 53 | 1011.8 |
| 20260503235724 | 54 | 0 | 0.0 | 0.0 | 0.00 | 0.00 | 0.00 | 48 | 1011.9 |
| 20260503235221 | 55 | 351 | 0.0 | 0.0 | 0.00 | 0.00 | 0.00 | 46 | 1011.9 |
| 20260503234719 | 55 | 3 | 0.0 | 0.0 | 0.00 | 0.00 | 0.00 | 45 | 1011.9 |
| 20260503234217 | 56 | 340 | 0.9 | 0.9 | 0.00 | 0.00 | 0.00 | 45 | 1011.5 |
| 20260503233713 | 56 | 40 | 0.0 | 0.0 | 0.00 | 0.00 | 0.00 | 44 | 1011.8 |
| 20260503233209 | 56 | 307 | 1.7 | 1.7 | 0.00 | 0.00 | 0.00 | 46 | 1011.8 |
| 20260503232706 | 57 | 212 | 1.7 | 2.6 | 0.00 | 0.00 | 0.00 | 42 | 1011.8 |
| 20260503232203 | 57 | 347 | 0.0 | 0.0 | 0.00 | 0.00 | 0.00 | 44 | 1011.7 |
| 20260503231702 | 57 | 80 | 1.7 | 2.6 | 0.00 | 0.00 | 0.00 | 44 | 1011.8 |
| 20260503231157 | 57 | 348 | 1.7 | 1.7 | 0.00 | 0.00 | 0.00 | 44 | 1011.8 |
| 20260503230654 | 57 | 10 | 0.0 | 0.0 | 0.00 | 0.00 | 0.00 | 44 | 1011.6 |
| 20260503230151 | 57 | 6 | 0.0 | 0.0 | 0.00 | 0.00 | 0.00 | 41 | 1011.9 |
| 20260503225648 | 57 | 28 | 1.7 | 1.7 | 0.00 | 0.00 | 0.00 | 42 | 1011.8 |
| 20260503225143 | 57 | 0 | 0.9 | 2.6 | 0.00 | 0.00 | 0.00 | 44 | 1011.7 |
| 20260503224640 | 58 | 245 | 2.6 | 4.3 | 0.00 | 0.00 | 0.00 | 40 | 1011.7 |
| 20260503224138 | 58 | 338 | 0.9 | 0.9 | 0.00 | 0.00 | 0.00 | 40 | 1011.6 |
| 20260503223636 | 58 | 21 | 0.0 | 0.0 | 0.00 | 0.00 | 0.00 | 42 | 1011.7 |
| 20260503223132 | 58 | 356 | 2.6 | 4.3 | 0.00 | 0.00 | 0.00 | 41 | 1011.6 |
| 20260503222629 | 58 | 280 | 0.0 | 0.9 | 0.00 | 0.00 | 0.00 | 39 | 1011.6 |
| 20260503222127 | 59 | 343 | 2.6 | 4.3 | 0.00 | 0.00 | 0.00 | 38 | 1011.5 |
| 20260503221625 | 59 | 316 | 0.0 | 0.9 | 0.00 | 0.00 | 0.00 | 40 | 1011.7 |
| 20260503221122 | 59 | 203 | 2.6 | 2.6 | 0.00 | 0.00 | 0.00 | 40 | 1011.9 |
| 20260503220619 | 59 | 287 | 0.9 | 1.7 | 0.00 | 0.00 | 0.00 | 39 | 1011.8 |
| 20260503220116 | 59 | 348 | 0.0 | 0.0 | 0.00 | 0.00 | 0.00 | 38 | 1011.7 |
| 20260503215613 | 60 | 259 | 0.9 | 1.7 | 0.00 | 0.00 | 0.00 | 42 | 1011.6 |
| 20260503215109 | 60 | 330 | 2.6 | 4.3 | 0.00 | 0.00 | 0.00 | 36 | 1011.6 |
| 20260503214608 | 61 | 320 | 3.5 | 5.2 | 0.00 | 0.00 | 0.00 | 35 | 1011.7 |
| 20260503214104 | 60 | 312 | 0.9 | 1.7 | 0.00 | 0.00 | 0.00 | 38 | 1011.5 |
| 20260503213603 | 59 | 317 | 2.6 | 2.6 | 0.00 | 0.00 | 0.00 | 37 | 1011.6 |
| 20260503213059 | 59 | 182 | 0.9 | 1.7 | 0.00 | 0.00 | 0.00 | 36 | 1011.6 |
| 20260503212556 | 59 | 234 | 0.0 | 0.9 | 0.00 | 0.00 | 0.00 | 37 | 1011.5 |
| 20260503212054 | 59 | 211 | 4.3 | 5.2 | 0.00 | 0.00 | 0.00 | 37 | 1011.4 |
| 20260503211551 | 60 | 0 | 2.6 | 5.2 | 0.00 | 0.00 | 0.00 | 38 | 1011.8 |
| 20260503211046 | 60 | 0 | 0.0 | 0.0 | 0.00 | 0.00 | 0.00 | 36 | 1011.3 |
| 20260503210543 | 59 | 195 | 3.5 | 6.1 | 0.00 | 0.00 | 0.00 | 37 | 1011.5 |
| 20260503210039 | 59 | 61 | 1.7 | 2.6 | 0.00 | 0.00 | 0.00 | 38 | 1011.5 |
| 20260503205536 | 60 | 174 | 1.7 | 4.3 | 0.00 | 0.00 | 0.00 | 37 | 1011.7 |
| 20260503205032 | 60 | 24 | 1.7 | 2.6 | 0.00 | 0.00 | 0.00 | 37 | 1011.6 |
| 20260503204529 | 60 | 252 | 0.9 | 0.9 | 0.00 | 0.00 | 0.00 | 37 | 1011.5 |
| 20260503204026 | 60 | 13 | 0.9 | 1.7 | 0.00 | 0.00 | 0.00 | 39 | 1011.7 |
| 20260503203523 | 60 | 307 | 2.6 | 4.3 | 0.00 | 0.00 | 0.00 | 36 | 1011.5 |
| 20260503203020 | 59 | 359 | 0.9 | 0.9 | 0.00 | 0.00 | 0.00 | 36 | 1011.7 |
| 20260503202518 | 60 | 55 | 2.6 | 4.3 | 0.00 | 0.00 | 0.00 | 38 | 1011.4 |
| 20260503202016 | 59 | 170 | 0.0 | 1.7 | 0.00 | 0.00 | 0.00 | 38 | 1011.7 |
| 20260503201514 | 60 | 7 | 7.8 | 8.7 | 0.00 | 0.00 | 0.00 | 35 | 1011.9 |
| 20260503201011 | 60 | 330 | 0.9 | 1.7 | 0.00 | 0.00 | 0.00 | 37 | 1011.7 |
| 20260503200507 | 60 | 290 | 2.6 | 2.6 | 0.00 | 0.00 | 0.00 | 37 | 1011.8 |
| 20260503200004 | 59 | 344 | 0.9 | 0.9 | 0.00 | 0.00 | 0.00 | 39 | 1011.7 |
| 20260503195501 | 59 | 22 | 0.0 | 0.0 | 0.00 | 0.00 | 0.00 | 38 | 1012.0 |
| 20260503194957 | 60 | 75 | 0.9 | 1.7 | 0.00 | 0.00 | 0.00 | 37 | 1012.0 |
| 20260503194455 | 60 | 182 | 3.5 | 4.3 | 0.00 | 0.00 | 0.00 | 38 | 1011.9 |
| 20260503193955 | 58 | 212 | 1.7 | 2.6 | 0.00 | 0.00 | 0.00 | 38 | 1011.8 |
| 20260503193451 | 60 | 289 | 1.7 | 1.7 | 0.00 | 0.00 | 0.00 | 36 | 1012.1 |
| 20260503192946 | 59 | 216 | 5.2 | 6.1 | 0.00 | 0.00 | 0.00 | 38 | 1012.1 |
| 20260503192443 | 59 | 10 | 0.0 | 0.0 | 0.00 | 0.00 | 0.00 | 39 | 1012.2 |
| 20260503191938 | 59 | 317 | 1.7 | 1.7 | 0.00 | 0.00 | 0.00 | 37 | 1012.4 |
| 20260503191436 | 61 | 270 | 4.3 | 6.1 | 0.00 | 0.00 | 0.00 | 37 | 1012.3 |
| 20260503190932 | 59 | 342 | 2.6 | 2.6 | 0.00 | 0.00 | 0.00 | 37 | 1012.5 |
| 20260503190430 | 60 | 292 | 2.6 | 6.1 | 0.00 | 0.00 | 0.00 | 37 | 1012.3 |
| 20260503185927 | 59 | 3 | 0.9 | 0.9 | 0.00 | 0.00 | 0.00 | 36 | 1012.5 |
| 20260503185423 | 60 | 312 | 5.2 | 7.0 | 0.00 | 0.00 | 0.00 | 35 | 1012.7 |
| 20260503184922 | 59 | 330 | 4.3 | 6.1 | 0.00 | 0.00 | 0.00 | 37 | 1012.6 |
| 20260503184420 | 58 | 328 | 1.7 | 2.6 | 0.00 | 0.00 | 0.00 | 39 | 1012.7 |
| 20260503183917 | 59 | 5 | 2.6 | 2.6 | 0.00 | 0.00 | 0.00 | 37 | 1012.8 |
| 20260503183413 | 59 | 163 | 2.6 | 2.6 | 0.00 | 0.00 | 0.00 | 39 | 1012.7 |
| 20260503182910 | 58 | 292 | 0.9 | 1.7 | 0.00 | 0.00 | 0.00 | 39 | 1012.6 |
| 20260503182409 | 58 | 345 | 0.9 | 2.6 | 0.00 | 0.00 | 0.00 | 40 | 1012.6 |
| 20260503181905 | 57 | 33 | 0.9 | 1.7 | 0.00 | 0.00 | 0.00 | 39 | 1012.8 |
| 20260503181402 | 57 | 37 | 0.0 | 0.0 | 0.00 | 0.00 | 0.00 | 40 | 1012.6 |
| 20260503180858 | 57 | 10 | 1.7 | 1.7 | 0.00 | 0.00 | 0.00 | 38 | 1012.7 |
| 20260503180357 | 58 | 285 | 7.0 | 8.7 | 0.00 | 0.00 | 0.00 | 36 | 1012.8 |
| 20260503175853 | 59 | 338 | 2.6 | 4.3 | 0.00 | 0.00 | 0.00 | 38 | 1012.7 |
| 20260503175351 | 59 | 353 | 5.2 | 7.0 | 0.00 | 0.00 | 0.00 | 36 | 1012.8 |
| 20260503174846 | 58 | 11 | 2.6 | 5.2 | 0.00 | 0.00 | 0.00 | 38 | 1013.0 |
| 20260503174345 | 57 | 323 | 1.7 | 1.7 | 0.00 | 0.00 | 0.00 | 39 | 1012.7 |
| 20260503173845 | 56 | 355 | 1.7 | 2.6 | 0.00 | 0.00 | 0.00 | 39 | 1013.3 |
| 20260503173342 | 56 | 7 | 0.9 | 1.7 | 0.00 | 0.00 | 0.00 | 40 | 1013.4 |
| 20260503172838 | 57 | 2 | 4.3 | 4.3 | 0.00 | 0.00 | 0.00 | 38 | 1013.2 |
| 20260503172336 | 58 | 357 | 1.7 | 2.6 | 0.00 | 0.00 | 0.00 | 37 | 1013.0 |
| 20260503171832 | 57 | 40 | 1.7 | 1.7 | 0.00 | 0.00 | 0.00 | 37 | 1013.3 |
| 20260503171329 | 57 | 338 | 0.9 | 1.7 | 0.00 | 0.00 | 0.00 | 40 | 1013.2 |
| 20260503170827 | 57 | 326 | 5.2 | 6.1 | 0.00 | 0.00 | 0.00 | 38 | 1013.5 |
| 20260503170323 | 56 | 183 | 4.3 | 6.1 | 0.00 | 0.00 | 0.00 | 40 | 1013.4 |
| 20260503110332 | 35 | 4 | 0.0 | 0.0 | 0.00 | 0.00 | 0.00 | 85 | 1014.6 |
| 20260503100258 | 36 | 5 | 0.0 | 0.0 | 0.00 | 0.00 | 0.00 | 83 | 1014.2 |
| 20260503090224 | 37 | 3 | 0.9 | 1.7 | 0.00 | 0.00 | 0.00 | 75 | 1013.7 |
| 20260503081150 | 37 | 342 | 0.0 | 0.0 | 0.00 | 0.00 | 0.00 | 81 | 1013.6 |
| 20260503080646 | 37 | 353 | 0.0 | 0.0 | 0.00 | 0.00 | 0.00 | 81 | 1013.5 |
| 20260503080144 | 36 | 5 | 0.0 | 0.0 | 0.00 | 0.00 | 0.00 | 81 | 1013.6 |
| 20260503072620 | 39 | 7 | 0.0 | 0.0 | 0.00 | 0.00 | 0.00 | 73 | 1013.0 |
| 20260503072117 | 40 | 345 | 0.0 | 0.0 | 0.00 | 0.00 | 0.00 | 71 | 1013.2 |
| 20260503071614 | 41 | 4 | 0.0 | 0.0 | 0.00 | 0.00 | 0.00 | 69 | 1013.1 |
| 20260503071111 | 41 | 7 | 0.0 | 0.0 | 0.00 | 0.00 | 0.00 | 69 | 1013.0 |
| 20260503070608 | 41 | 305 | 0.0 | 0.9 | 0.00 | 0.00 | 0.00 | 67 | 1013.0 |
| 20260503070106 | 41 | 211 | 0.9 | 1.7 | 0.00 | 0.00 | 0.00 | 67 | 1013.2 |
| 20260503055026 | 42 | 357 | 0.0 | 0.0 | 0.00 | 0.00 | 0.00 | 64 | 1013.1 |
| 20260503054522 | 42 | 21 | 0.0 | 0.9 | 0.00 | 0.00 | 0.00 | 62 | 1013.2 |
| 20260503054020 | 43 | 23 | 0.0 | 0.9 | 0.00 | 0.00 | 0.00 | 68 | 1013.1 |
| 20260503053518 | 42 | 327 | 0.9 | 1.7 | 0.00 | 0.00 | 0.00 | 61 | 1013.1 |
| 20260503053015 | 42 | 353 | 0.0 | 0.9 | 0.00 | 0.00 | 0.00 | 64 | 1013.4 |
| 20260503052512 | 41 | 35 | 0.9 | 0.9 | 0.00 | 0.00 | 0.00 | 68 | 1013.4 |
| 20260503052008 | 42 | 3 | 0.0 | 0.0 | 0.00 | 0.00 | 0.00 | 72 | 1013.2 |
| 20260503051503 | 42 | 7 | 0.0 | 0.0 | 0.00 | 0.00 | 0.00 | 75 | 1013.3 |
| 20260503051001 | 42 | 11 | 0.0 | 0.9 | 0.00 | 0.00 | 0.00 | 78 | 1013.3 |